{"data":{"norad_id":68392,"epoch":"2026-05-25T00:00:02.000160Z","epoch_age_seconds":71006,"freshness":"FRESH","line1":"1 68392U 26063N   26145.00002315 -.00046863  00000+0 -14573-2 0  9994","line2":"2 68392  97.2844 287.5387 0000625  26.5759 146.4408 15.33465362  5595","mean_motion":15.33465362,"eccentricity":6.25e-5,"inclination_deg":97.2844,"raan_deg":287.5387,"arg_perigee_deg":26.5759,"mean_anomaly_deg":146.4408,"bstar":-0.0014573,"rev_number":559,"period_min":93.904957730633,"perigee_km":465.05486593788,"apogee_km":465.9103183869,"semimajor_km":6843.6195921624,"source":"CELESTRAK","updated_at":"2026-05-25T13:38:21.930665Z"}}